Home > Weather > Ho Chi Minh > Past weeks

Flag for Vietnam Weather for the Past 2 Weeks in Ho Chi Minh, Vietnam

Now
93 °F

Passing clouds.


Feels Like: 94 °F
Forecast: 70 / 87 °F
Wind: 5 mph from Northeast

Location: Ho Chi Minh

Current Time: Feb 6, 2016 at 2:32:37 PM

Latest Report: Feb 6, 2016 at 2:00 PM


Visibility: N/A

Pressure: 29.83 "Hg

Humidity: 36%

Dew point: 63 °F

Location of Ho Chi MinhLocation

Historic Weather in Ho Chi Minh — Graph

°F

Ho Chi Minh Temperature Yesterday

Maximum temperature yesterday: 95 °F (at 3:00 PM)
Minimum temperature yesterday: 77 °F (at 6:30 AM)
Average temperature yesterday: 84 °F

High & Low Weather Summary for the Past Weeks

 TemperatureHumidityPressure
High97 °F (Jan 31, 1:30 PM)83% (Jan 23, 6:00 AM)30.04 "Hg (Jan 23, 6:00 AM)
Low70 °F (Jan 26, 3:30 AM)28% (Feb 1, 4:00 PM)29.74 "Hg (Feb 5, 2:30 PM)
Average84 °F58%29.88 "Hg
* Reported Jan 22 1:00 PM — Feb 6 1:30 PM, Ho Chi Minh, Weather by CustomWeather, © 2016

Note: Actual official high and low records may vary slightly from our data, if they occured in-between our weather recording intervals... More about our weather records

Advertising

Ho Chi Minh Weather History for the Previous 24 Hours

 ConditionsComfort  
Time TempWeatherWind HumidityBarometerVisibility
1:30 PM
Sat, Feb 6
90 °FPassing clouds.2 mph41%29.83 "HgN/A
1:00 PM90 °FPassing clouds.2 mph43%29.86 "HgN/A
12:30 PM90 °FPassing clouds.2 mph46%29.86 "HgN/A
12:00 PM90 °FPassing clouds.3 mph46%29.89 "HgN/A
11:30 AM88 °FScattered clouds.3 mph49%29.92 "HgN/A
11:00 AM88 °FScattered clouds.5 mph52%29.92 "HgN/A
10:30 AM84 °FScattered clouds.6 mph58%29.92 "HgN/A
10:00 AM82 °FSunny.6 mph58%29.92 "Hg10 mi
9:00 AM81 °FPassing clouds.8 mph58%29.95 "HgN/A
8:30 AM79 °FPassing clouds.7 mph61%29.92 "HgN/A
7:30 AM75 °FPassing clouds.7 mph69%29.89 "Hg6 mi
7:00 AM75 °FPassing clouds.5 mph74%29.89 "HgN/A
6:30 AM75 °FPassing clouds.6 mph69%29.86 "Hg6 mi
6:00 AM73 °FPassing clouds.6 mph74%29.86 "HgN/A
5:30 AM73 °FPassing clouds.5 mph74%29.83 "HgN/A
5:00 AM75 °FPassing clouds.2 mph74%29.83 "HgN/A
4:30 AM75 °FPassing clouds.5 mph74%29.83 "HgN/A
4:00 AM75 °FPassing clouds.3 mph74%29.80 "HgN/A
3:30 AM75 °FPassing clouds.3 mph74%29.80 "HgN/A
3:00 AM77 °FPassing clouds.3 mph74%29.80 "HgN/A
2:30 AM77 °FPassing clouds.3 mph79%29.80 "HgN/A
2:00 AM79 °FPassing clouds.2 mph74%29.80 "HgN/A
1:30 AM79 °FPassing clouds.5 mph74%29.83 "HgN/A
1:00 AM79 °FPassing clouds.5 mph74%29.83 "HgN/A
12:30 AM79 °FPassing clouds.1 mph74%29.83 "HgN/A
12:00 AM79 °FPassing clouds.2 mph74%29.83 "HgN/A
11:30 PM
Fri, Feb 5
79 °FPassing clouds.1 mph74%29.83 "HgN/A
11:00 PM81 °FPassing clouds.2 mph70%29.83 "HgN/A
10:30 PM81 °FPassing clouds.No wind70%29.83 "HgN/A
10:00 PM81 °FPassing clouds.2 mph70%29.83 "HgN/A
9:30 PM81 °FPassing clouds.2 mph70%29.83 "HgN/A
9:00 PM81 °FPassing clouds.5 mph66%29.83 "HgN/A
8:30 PM82 °FPassing clouds.7 mph66%29.80 "HgN/A
8:00 PM84 °FPassing clouds.7 mph58%29.80 "HgN/A
7:30 PM84 °FPassing clouds.9 mph62%29.80 "HgN/A
7:00 PM84 °FPassing clouds.10 mph58%29.77 "HgN/A
6:30 PM84 °FPassing clouds.10 mph62%29.77 "HgN/A
6:00 PM84 °FPassing clouds.9 mph66%29.77 "HgN/A
5:30 PM86 °FScattered clouds.12 mph62%29.74 "HgN/A
5:00 PM86 °FScattered clouds.13 mph62%29.74 "HgN/A
4:30 PM95 °FScattered clouds.2 mph39%29.74 "HgN/A
4:00 PM93 °FScattered clouds.3 mph41%29.74 "HgN/A
3:30 PM95 °FScattered clouds.2 mph36%29.74 "HgN/A
3:00 PM95 °FPartly sunny.7 mph39%29.74 "HgN/A
2:30 PM93 °FPartly sunny.8 mph39%29.74 "HgN/A
2:00 PM93 °FPartly sunny.8 mph41%29.77 "HgN/A
Weather by CustomWeather, © 2016

See weather overviewHow to use our weather pages